Lincoln, NE

3:20 PM CST on November 21, 2019 (GMT -0600)
Lincoln Municipal

Weather History for KLNK - September, 2019

Change the Weather History Date:

Sunday, September 15, 2019

  Actual Average Record
Temperature  
Mean Temperature 78 °F 66 °F  
Max Temperature 94 °F 79 °F 99 °F (1939)
Min Temperature 62 °F 54 °F 31 °F (1993)
Degree Days  
Heating Degree Days 0 3  
Month to date heating degree days 0 22  
Since 1 July heating degree days 0 28  
Cooling Degree Days 13 4  
Month to date cooling degree days 145 85  
Year to date cooling degree days 1197 1120  
Growing Degree Days 28 (Base 50)    
Moisture  
Dew Point 65 °F    
Average Humidity 57    
Maximum Humidity 87    
Minimum Humidity 26    
Precipitation  
Precipitation 0.00 in 0.10 in 1.96 in (1988)
Month to date precipitation 0.19 1.63  
Year to date precipitation 24.85 23.21  
Snow  
Snow 0.00 in 0.00 in 0.00 in (2006)
Month to date snowfall 0.0 0.0  
Since 1 July snowfall 0.0 0.0  
Since 1 September snowfall 0.0 0.0  
Snow Depth 0.00 in    
Sea Level Pressure  
Sea Level Pressure 29.96 in    
Wind  
Wind Speed 4 mph (South)    
Max Wind Speed 12 mph    
Max Gust Speed 16 mph    
Visibility 10 miles    
Events      
T = Trace of Precipitation, MM = Missing Value Source: NWS Daily Summary

Daily Weather History Graph

Daily Weather History Graph

Search for Another Location

Airport or City:

Astronomy

Sep. 15, 2019 Rise Set
Actual Time 7:07 AM CDT 7:36 PM CDT
Civil Twilight 6:39 AM CDT 8:03 PM CDT
Nautical Twilight 6:07 AM CDT 8:36 PM CDT
Astronomical Twilight 5:34 AM CDT 9:09 PM CDT
Moon 8:44 PM CDT (9/15) 8:18 AM CDT (9/15)
Length of Visible Light 13h 23m
Length of Day
12h 28m
Full, 98% of the Moon is Illuminated
Sep 15
Full
Sep 21
Last Quarter
Sep 28
New
Oct 5
First Quarter
Oct 13
Full

Hourly Weather History & Observations

Time (CDT) Temp. Heat Index Dew Point Humidity Pressure Visibility Wind Dir Wind Speed Gust Speed Precip Events Conditions
12:54 AM 75.9 °F - 66.9 °F 74% 29.93 in 10.0 mi SSW 9.2 mph - N/A   Clear
1:54 AM 73.9 °F - 66.0 °F 76% 29.94 in 10.0 mi SSW 9.2 mph - N/A   Clear
2:54 AM 73.0 °F - 64.9 °F 76% 29.94 in 10.0 mi SSW 6.9 mph - N/A   Clear
3:54 AM 70.0 °F - 64.0 °F 81% 29.94 in 10.0 mi Calm Calm - N/A   Clear
4:54 AM 69.1 °F - 63.0 °F 81% 29.95 in 10.0 mi South 5.8 mph - N/A   Clear
5:54 AM 66.9 °F - 63.0 °F 87% 29.96 in 10.0 mi Calm Calm - N/A   Clear
6:54 AM 64.0 °F - 61.0 °F 90% 29.97 in 10.0 mi South 5.8 mph - N/A   Clear
7:54 AM 66.0 °F - 63.0 °F 90% 29.98 in 9.0 mi South 4.6 mph - N/A   Clear
8:54 AM 72.0 °F - 64.0 °F 76% 29.99 in 10.0 mi Calm Calm - N/A   Clear
9:54 AM 75.0 °F - 64.9 °F 71% 29.99 in 10.0 mi SW 4.6 mph - 0.00 in   Clear
10:54 AM 81.0 °F 83.0 °F 66.0 °F 60% 29.99 in 10.0 mi Calm Calm - N/A   Clear
11:54 AM 84.9 °F 87.1 °F 66.0 °F 53% 29.99 in 10.0 mi Variable 3.5 mph - N/A   Clear
12:54 PM 88.0 °F 89.6 °F 64.9 °F 46% 29.99 in 10.0 mi SW 3.5 mph - N/A   Clear
1:54 PM 90.0 °F 91.7 °F 64.9 °F 43% 29.98 in 10.0 mi Calm Calm - N/A   Clear
2:54 PM 93.0 °F 93.8 °F 62.1 °F 36% 29.95 in 10.0 mi ESE 4.6 mph - N/A   Clear
3:54 PM 93.9 °F 93.6 °F 60.1 °F 32% 29.94 in 10.0 mi Variable 3.5 mph - N/A   Clear
4:54 PM 93.9 °F 91.7 °F 54.0 °F 26% 29.94 in 10.0 mi SE 8.1 mph - N/A   Clear
5:54 PM 91.0 °F 93.0 °F 64.9 °F 42% 29.94 in 10.0 mi SE 10.4 mph - N/A   Clear
6:54 PM 86.0 °F 88.8 °F 66.9 °F 53% 29.95 in 10.0 mi South 10.4 mph - N/A   Clear
7:54 PM 82.0 °F 84.5 °F 66.9 °F 60% 29.94 in 10.0 mi Calm Calm - N/A   Clear
8:54 PM 80.1 °F 82.3 °F 66.9 °F 64% 29.95 in 10.0 mi SE 3.5 mph - N/A   Clear
9:54 PM 77.0 °F - 68.0 °F 74% 29.96 in 10.0 mi SE 4.6 mph - N/A   Clear
10:54 PM 75.9 °F - 68.0 °F 76% 29.96 in 10.0 mi SSE 3.5 mph - N/A   Clear
11:54 PM 75.0 °F - 68.0 °F 79% 29.96 in 10.0 mi SSW 3.5 mph - N/A   Clear